This is the latest recevied weather packets stored in our database for station/object W6ORV. If no packets are shown the sender has not sent any weather packets the latest 10 day(s).
| Time | Temp. | Humidity | Pressure | Rain* | Wind** | Luminosity | Snow |
|---|---|---|---|---|---|---|---|
| 1777693465 | 16.11° C | 73% | 4297.9 hPa | 0 mm | - | 0 W/m² | - |
| 1777693163 | 16.11° C | 72% | 4297.5 hPa | 0 mm | - | 0 W/m² | - |
| 1777692860 | 16.11° C | 71% | 4297.5 hPa | 0 mm | - | 0 W/m² | - |
| 1777692557 | 16.67° C | 71% | 4297.7 hPa | 0 mm | - | 0 W/m² | - |
| 1777692253 | 16.67° C | 70% | 4297.4 hPa | 0 mm | - | 0 W/m² | - |
| 1777691950 | 16.67° C | 70% | 4297.4 hPa | 0 mm | - | 0 W/m² | - |
| 1777691649 | 17.22° C | 69% | 4297.3 hPa | 0 mm | - | 0 W/m² | - |
| 1777691347 | 17.22° C | 68% | 4297.4 hPa | 0 mm | - | 0 W/m² | - |
| 1777691045 | 17.78° C | 68% | 4297.1 hPa | 0 mm | - | 0 W/m² | - |
| 1777690742 | 17.78° C | 67% | 4297.3 hPa | 0 mm | - | 0 W/m² | - |
| 1777690439 | 17.78° C | 66% | 4297.1 hPa | 0 mm | - | 0 W/m² | - |
| 1777690137 | 18.33° C | 66% | 4297 hPa | 0 mm | - | 2 W/m² | - |
| 1777689835 | 18.33° C | 65% | 4296.9 hPa | 0 mm | - | 4 W/m² | - |
| 1777689532 | 18.89° C | 64% | 4296.8 hPa | 0 mm | - | 8 W/m² | - |
| 1777689230 | 18.89° C | 63% | 4296.9 hPa | 0 mm | - | 12 W/m² | - |
| 1777688927 | 18.89° C | 62% | 4297 hPa | 0 mm | - | 14 W/m² | - |
| 1777688623 | 19.44° C | 62% | 4296.7 hPa | 0 mm | - | 16 W/m² | - |
| 1777688320 | 20° C | 61% | 4296.9 hPa | 0 mm | - | 23 W/m² | - |
| 1777688018 | 20° C | 60% | 4296.5 hPa | 0 mm | - | 27 W/m² | - |
| 1777687715 | 20.56° C | 59% | 4296.6 hPa | 0 mm | - | 29 W/m² | - |
| 1777687413 | 20.56° C | 58% | 4296.5 hPa | 0 mm | - | 34 W/m² | - |
| 1777687109 | 21.11° C | 56% | 4296.5 hPa | 0 mm | - | 40 W/m² | - |
| 1777686807 | 21.11° C | 56% | 4296.6 hPa | 0 mm | - | 48 W/m² | - |
| 1777686504 | 21.67° C | 54% | 4296.4 hPa | 0 mm | - | 45 W/m² | - |
| 1777686201 | 21.67° C | 54% | 4296.3 hPa | 0 mm | - | 46 W/m² | - |
* Rain latest hour (hover to see other rain measurements)
** Current wind speed in m/s (hover to see current wind gust speed)